Terug naar catalogus

COSMOS 2251 DEB

ActiefLEO
NORAD 34635·DEBRIS·🇷🇺 Russia

Gelanceerd Jun 16, 1993 vanaf Plesetsk Cosmodrome

Loading…

Volgende Passages (komende 24 uur)

TLE

VersSource: Space-Track

Epoch: Sep 14, 2026, 11:29 UTC

1 34635U 93036XG  26257.47892416  .00003706  00000-0  59863-3 0  9995
2 34635  74.0411 256.2576 0032127 256.0911 260.2028 14.71413914772711

Volg COSMOS 2251 DEB in realtime met AllMySat

Download on the App Store